Time,TemperatureF,DewpointF,PressureIn,WindDirection,WindDirectionDegrees,WindSpeedMPH,WindSpeedGustMPH,Humidity,HourlyPrecipIn,Conditions,Clouds,dailyrainin,SoftwareType,DateUTC
2013-01-14 00:12:00,9.0,-99.9,-100.00,SW,221,9.0,14.0,-999,-99.99,,,-99.99,,2013-01-14 06:12:00,
2013-01-14 00:23:00,9.0,-99.9,-100.00,SW,221,9.0,14.0,-999,-99.99,,,-99.99,,2013-01-14 06:23:00,
2013-01-14 00:33:00,9.0,-99.9,-100.00,SW,221,9.0,14.0,-999,-99.99,,,-99.99,,2013-01-14 06:33:00,
2013-01-14 00:40:00,9.0,-99.9,-100.00,SW,228,9.0,16.0,-999,-99.99,,,-99.99,,2013-01-14 06:40:00,
2013-01-14 01:12:00,9.0,-99.9,-100.00,SW,228,9.0,16.0,-999,-99.99,,,-99.99,,2013-01-14 07:12:00,
2013-01-14 01:23:00,9.0,-99.9,-100.00,SW,228,9.0,16.0,-999,-99.99,,,-99.99,,2013-01-14 07:23:00,
2013-01-14 01:33:00,9.0,-99.9,-100.00,SW,228,9.0,16.0,-999,-99.99,,,-99.99,,2013-01-14 07:33:00,
2013-01-14 01:40:00,8.0,-99.9,-100.00,SSW,199,9.0,12.0,-999,-99.99,,,-99.99,,2013-01-14 07:40:00,
2013-01-14 02:12:00,8.0,-99.9,-100.00,SSW,199,9.0,12.0,-999,-99.99,,,-99.99,,2013-01-14 08:12:00,
2013-01-14 02:22:00,8.0,-99.9,-100.00,SSW,199,9.0,12.0,-999,-99.99,,,-99.99,,2013-01-14 08:22:00,
2013-01-14 02:33:00,8.0,-99.9,-100.00,SSW,199,9.0,12.0,-999,-99.99,,,-99.99,,2013-01-14 08:33:00,
2013-01-14 02:40:00,8.0,-99.9,-100.00,SSW,196,8.0,10.0,-999,-99.99,,,-99.99,,2013-01-14 08:40:00,
2013-01-14 03:12:00,8.0,-99.9,-100.00,SSW,196,8.0,10.0,-999,-99.99,,,-99.99,,2013-01-14 09:12:00,
2013-01-14 03:23:00,8.0,-99.9,-100.00,SSW,196,8.0,10.0,-999,-99.99,,,-99.99,,2013-01-14 09:23:00,
2013-01-14 03:34:00,8.0,-99.9,-100.00,SSW,196,8.0,10.0,-999,-99.99,,,-99.99,,2013-01-14 09:34:00,
2013-01-14 03:40:00,9.0,-99.9,-100.00,SSW,200,11.0,13.0,-999,-99.99,,,-99.99,,2013-01-14 09:40:00,
2013-01-14 04:12:00,9.0,-99.9,-100.00,SSW,200,11.0,13.0,-999,-99.99,,,-99.99,,2013-01-14 10:12:00,
2013-01-14 04:23:00,9.0,-99.9,-100.00,SSW,200,11.0,13.0,-999,-99.99,,,-99.99,,2013-01-14 10:23:00,
2013-01-14 04:33:00,9.0,-99.9,-100.00,SSW,200,11.0,13.0,-999,-99.99,,,-99.99,,2013-01-14 10:33:00,
2013-01-14 04:40:00,9.0,-99.9,-100.00,South,179,5.0,10.0,-999,-99.99,,,-99.99,,2013-01-14 10:40:00,
2013-01-14 05:12:00,9.0,-99.9,-100.00,South,179,5.0,10.0,-999,-99.99,,,-99.99,,2013-01-14 11:12:00,
2013-01-14 05:23:00,9.0,-99.9,-100.00,South,179,5.0,10.0,-999,-99.99,,,-99.99,,2013-01-14 11:23:00,
2013-01-14 05:33:00,9.0,-99.9,-100.00,South,179,5.0,10.0,-999,-99.99,,,-99.99,,2013-01-14 11:33:00,
2013-01-14 05:40:00,9.0,-99.9,-100.00,SSW,200,7.0,9.0,-999,-99.99,,,-99.99,,2013-01-14 11:40:00,
2013-01-14 06:12:00,9.0,-99.9,-100.00,SSW,200,7.0,9.0,-999,-99.99,,,-99.99,,2013-01-14 12:12:00,
2013-01-14 06:23:00,9.0,-99.9,-100.00,SSW,200,7.0,9.0,-999,-99.99,,,-99.99,,2013-01-14 12:23:00,
2013-01-14 06:33:00,9.0,-99.9,-100.00,SSW,200,7.0,9.0,-999,-99.99,,,-99.99,,2013-01-14 12:33:00,
2013-01-14 06:40:00,7.0,-99.9,-100.00,SSW,196,7.0,10.0,-999,-99.99,,,-99.99,,2013-01-14 12:40:00,
2013-01-14 07:13:00,7.0,-99.9,-100.00,SSW,196,7.0,10.0,-999,-99.99,,,-99.99,,2013-01-14 13:13:00,
2013-01-14 07:23:00,7.0,-99.9,-100.00,SSW,196,7.0,10.0,-999,-99.99,,,-99.99,,2013-01-14 13:23:00,
2013-01-14 07:34:00,7.0,-99.9,-100.00,SSW,196,7.0,10.0,-999,-99.99,,,-99.99,,2013-01-14 13:34:00,
2013-01-14 07:40:00,7.0,-99.9,-100.00,SSW,193,7.0,11.0,-999,-99.99,,,-99.99,,2013-01-14 13:40:00,
2013-01-14 08:13:00,7.0,-99.9,-100.00,SSW,193,7.0,11.0,-999,-99.99,,,-99.99,,2013-01-14 14:13:00,
2013-01-14 08:23:00,7.0,-99.9,-100.00,SSW,193,7.0,11.0,-999,-99.99,,,-99.99,,2013-01-14 14:23:00,
2013-01-14 08:33:00,7.0,-99.9,-100.00,SSW,193,7.0,11.0,-999,-99.99,,,-99.99,,2013-01-14 14:33:00,
2013-01-14 08:40:00,8.0,-99.9,-100.00,SSW,209,9.0,16.0,-999,-99.99,,,-99.99,,2013-01-14 14:40:00,
2013-01-14 09:13:00,8.0,-99.9,-100.00,SSW,209,9.0,16.0,-999,-99.99,,,-99.99,,2013-01-14 15:13:00,
2013-01-14 09:24:00,8.0,-99.9,-100.00,SSW,209,9.0,16.0,-999,-99.99,,,-99.99,,2013-01-14 15:24:00,
2013-01-14 09:34:00,8.0,-99.9,-100.00,SSW,209,9.0,16.0,-999,-99.99,,,-99.99,,2013-01-14 15:34:00,
2013-01-14 09:40:00,8.0,-99.9,-100.00,SSW,197,9.0,14.0,-999,-99.99,,,-99.99,,2013-01-14 15:40:00,
2013-01-14 10:13:00,8.0,-99.9,-100.00,SSW,197,9.0,14.0,-999,-99.99,,,-99.99,,2013-01-14 16:13:00,
2013-01-14 10:23:00,8.0,-99.9,-100.00,SSW,197,9.0,14.0,-999,-99.99,,,-99.99,,2013-01-14 16:23:00,
2013-01-14 10:33:00,8.0,-99.9,-100.00,SSW,197,9.0,14.0,-999,-99.99,,,-99.99,,2013-01-14 16:33:00,
2013-01-14 10:40:00,9.0,-99.9,-100.00,SSW,196,9.0,16.0,-999,-99.99,,,-99.99,,2013-01-14 16:40:00,
2013-01-14 11:12:00,9.0,-99.9,-100.00,SSW,196,9.0,16.0,-999,-99.99,,,-99.99,,2013-01-14 17:12:00,
2013-01-14 11:23:00,9.0,-99.9,-100.00,SSW,196,9.0,16.0,-999,-99.99,,,-99.99,,2013-01-14 17:23:00,
2013-01-14 11:34:00,9.0,-99.9,-100.00,SSW,196,9.0,16.0,-999,-99.99,,,-99.99,,2013-01-14 17:34:00,
2013-01-14 11:40:00,11.0,-99.9,-100.00,SSW,213,12.0,17.0,-999,-99.99,,,-99.99,,2013-01-14 17:40:00,
2013-01-14 12:13:00,11.0,-99.9,-100.00,SSW,213,12.0,17.0,-999,-99.99,,,-99.99,,2013-01-14 18:13:00,
2013-01-14 12:23:00,11.0,-99.9,-100.00,SSW,213,12.0,17.0,-999,-99.99,,,-99.99,,2013-01-14 18:23:00,
2013-01-14 12:33:00,11.0,-99.9,-100.00,SSW,213,12.0,17.0,-999,-99.99,,,-99.99,,2013-01-14 18:33:00,
2013-01-14 12:40:00,11.0,-99.9,-100.00,SW,231,7.0,12.0,-999,-99.99,,,-99.99,,2013-01-14 18:40:00,
2013-01-14 13:13:00,11.0,-99.9,-100.00,SW,231,7.0,12.0,-999,-99.99,,,-99.99,,2013-01-14 19:13:00,
2013-01-14 13:22:00,11.0,-99.9,-100.00,SW,231,7.0,12.0,-999,-99.99,,,-99.99,,2013-01-14 19:22:00,
2013-01-14 13:33:00,11.0,-99.9,-100.00,SW,231,7.0,12.0,-999,-99.99,,,-99.99,,2013-01-14 19:33:00,
2013-01-14 13:40:00,12.0,-99.9,-100.00,WSW,250,11.0,15.0,-999,-99.99,,,-99.99,,2013-01-14 19:40:00,
2013-01-14 14:13:00,12.0,-99.9,-100.00,WSW,250,11.0,15.0,-999,-99.99,,,-99.99,,2013-01-14 20:13:00,
2013-01-14 14:23:00,12.0,-99.9,-100.00,WSW,250,11.0,15.0,-999,-99.99,,,-99.99,,2013-01-14 20:23:00,
2013-01-14 14:34:00,12.0,-99.9,-100.00,WSW,250,11.0,15.0,-999,-99.99,,,-99.99,,2013-01-14 20:34:00,
2013-01-14 14:40:00,13.0,-99.9,-100.00,SW,226,8.0,14.0,-999,-99.99,,,-99.99,,2013-01-14 20:40:00,
2013-01-14 15:13:00,13.0,-99.9,-100.00,SW,226,8.0,14.0,-999,-99.99,,,-99.99,,2013-01-14 21:13:00,
2013-01-14 15:23:00,13.0,-99.9,-100.00,SW,226,8.0,14.0,-999,-99.99,,,-99.99,,2013-01-14 21:23:00,
2013-01-14 15:33:00,13.0,-99.9,-100.00,SW,226,8.0,14.0,-999,-99.99,,,-99.99,,2013-01-14 21:33:00,
2013-01-14 15:40:00,13.0,-99.9,-100.00,SW,221,8.0,13.0,-999,-99.99,,,-99.99,,2013-01-14 21:40:00,
2013-01-14 16:13:00,13.0,-99.9,-100.00,SW,221,8.0,13.0,-999,-99.99,,,-99.99,,2013-01-14 22:13:00,
2013-01-14 16:23:00,13.0,-99.9,-100.00,SW,221,8.0,13.0,-999,-99.99,,,-99.99,,2013-01-14 22:23:00,
2013-01-14 16:33:00,13.0,-99.9,-100.00,SW,221,8.0,13.0,-999,-99.99,,,-99.99,,2013-01-14 22:33:00,
2013-01-14 16:40:00,12.0,-99.9,-100.00,WSW,245,4.0,9.0,-999,-99.99,,,-99.99,,2013-01-14 22:40:00,
2013-01-14 17:12:00,12.0,-99.9,-100.00,WSW,245,4.0,9.0,-999,-99.99,,,-99.99,,2013-01-14 23:12:00,
2013-01-14 17:23:00,12.0,-99.9,-100.00,WSW,245,4.0,9.0,-999,-99.99,,,-99.99,,2013-01-14 23:23:00,
2013-01-14 17:33:00,12.0,-99.9,-100.00,WSW,245,4.0,9.0,-999,-99.99,,,-99.99,,2013-01-14 23:33:00,
2013-01-14 17:40:00,11.0,-99.9,-100.00,SSW,201,6.0,8.0,-999,-99.99,,,-99.99,,2013-01-14 23:40:00,
2013-01-14 18:12:00,11.0,-99.9,-100.00,SSW,201,6.0,8.0,-999,-99.99,,,-99.99,,2013-01-15 00:12:00,
2013-01-14 18:23:00,11.0,-99.9,-100.00,SSW,201,6.0,8.0,-999,-99.99,,,-99.99,,2013-01-15 00:23:00,
2013-01-14 18:33:00,11.0,-99.9,-100.00,SSW,201,6.0,8.0,-999,-99.99,,,-99.99,,2013-01-15 00:33:00,
2013-01-14 18:40:00,10.0,-99.9,-100.00,SSW,193,7.0,10.0,-999,-99.99,,,-99.99,,2013-01-15 00:40:00,
2013-01-14 19:12:00,10.0,-99.9,-100.00,SSW,193,7.0,10.0,-999,-99.99,,,-99.99,,2013-01-15 01:12:00,
2013-01-14 19:23:00,10.0,-99.9,-100.00,SSW,193,7.0,10.0,-999,-99.99,,,-99.99,,2013-01-15 01:23:00,
2013-01-14 19:33:00,10.0,-99.9,-100.00,SSW,193,7.0,10.0,-999,-99.99,,,-99.99,,2013-01-15 01:33:00,
2013-01-14 19:40:00,10.0,-99.9,-100.00,South,191,6.0,12.0,-999,-99.99,,,-99.99,,2013-01-15 01:40:00,
2013-01-14 20:12:00,10.0,-99.9,-100.00,South,191,6.0,12.0,-999,-99.99,,,-99.99,,2013-01-15 02:12:00,
2013-01-14 20:23:00,10.0,-99.9,-100.00,South,191,6.0,12.0,-999,-99.99,,,-99.99,,2013-01-15 02:23:00,
2013-01-14 20:33:00,10.0,-99.9,-100.00,South,191,6.0,12.0,-999,-99.99,,,-99.99,,2013-01-15 02:33:00,
2013-01-14 20:40:00,9.0,-99.9,-100.00,South,188,7.0,11.0,-999,-99.99,,,-99.99,,2013-01-15 02:40:00,
2013-01-14 21:12:00,9.0,-99.9,-100.00,South,188,7.0,11.0,-999,-99.99,,,-99.99,,2013-01-15 03:12:00,
2013-01-14 21:22:00,9.0,-99.9,-100.00,South,188,7.0,11.0,-999,-99.99,,,-99.99,,2013-01-15 03:22:00,
2013-01-14 21:33:00,9.0,-99.9,-100.00,South,188,7.0,11.0,-999,-99.99,,,-99.99,,2013-01-15 03:33:00,
2013-01-14 21:40:00,7.0,-99.9,-100.00,SSW,194,6.0,9.0,-999,-99.99,,,-99.99,,2013-01-15 03:40:00,
2013-01-14 22:12:00,7.0,-99.9,-100.00,SSW,194,6.0,9.0,-999,-99.99,,,-99.99,,2013-01-15 04:12:00,
2013-01-14 22:22:00,7.0,-99.9,-100.00,SSW,194,6.0,9.0,-999,-99.99,,,-99.99,,2013-01-15 04:22:00,
2013-01-14 22:33:00,7.0,-99.9,-100.00,SSW,194,6.0,9.0,-999,-99.99,,,-99.99,,2013-01-15 04:33:00,
2013-01-14 22:40:00,7.0,-99.9,-100.00,South,180,6.0,9.0,-999,-99.99,,,-99.99,,2013-01-15 04:40:00,
2013-01-14 23:12:00,7.0,-99.9,-100.00,South,180,6.0,9.0,-999,-99.99,,,-99.99,,2013-01-15 05:12:00,
2013-01-14 23:23:00,7.0,-99.9,-100.00,South,180,6.0,9.0,-999,-99.99,,,-99.99,,2013-01-15 05:23:00,
2013-01-14 23:33:00,7.0,-99.9,-100.00,South,180,6.0,9.0,-999,-99.99,,,-99.99,,2013-01-15 05:33:00,
2013-01-14 23:40:00,7.0,-99.9,-100.00,South,186,4.0,8.0,-999,-99.99,,,-99.99,,2013-01-15 05:40:00,